Maple Lake, MN

5:55 AM CDT on June 28, 2017 (GMT -0500)
Maple Lake Municipal

Weather History for KMGG - July, 2013

Change the Weather History Date:

Thursday, July 4, 2013

  Actual Average (KSTC) Record (KSTC)
Temperature  
Mean Temperature 75 °F -  
Max Temperature 88 °F 81 °F 97 °F (2012)
Min Temperature 62 °F 57 °F 43 °F (1972)
Cooling Degree Days 10    
Growing Degree Days 25 (Base 50)    
Moisture  
Dew Point 59 °F    
Average Humidity 60    
Maximum Humidity 86    
Minimum Humidity 33    
Precipitation  
Precipitation 0.00 in - - ()
Sea Level Pressure  
Sea Level Pressure 29.92 in    
Wind  
Wind Speed 3 mph (South)    
Max Wind Speed 12 mph    
Max Gust Speed 22 mph    
Visibility 10 miles    
Events      
Averages and records for this station are not official NWS values.
T = Trace of Precipitation, MM = Missing Value Source: NWS Daily Summary

Daily Weather History Graph

Daily Weather History Graph

Search for Another Location

Airport or City:

Trip Planner

Search our weather history database for the weather conditions in past years. The results will help you decide how hot, cold, wet, or windy it might be!

Date:

Astronomy

Jul. 04, 2013 Rise Set
Actual Time 5:34 AM CDT 9:06 PM CDT
Civil Twilight 4:56 AM CDT 9:43 PM CDT
Nautical Twilight 4:07 AM CDT 10:32 PM CDT
Astronomical Twilight 3:03 AM CDT 11:36 PM CDT
Moon 2:55 AM CDT (7/4) 6:08 PM CDT (7/4)
Length of Visible Light 16h 46m
Length of Day
15h 32m
Waning Crescent, 11% of the Moon is Illuminated
Jul 4
Waning Crescent
Jul 8
New
Jul 15
First Quarter
Jul 22
Full
Jul 29
Last Quarter

Hourly Weather History & Observations

Time (CDT) Temp. Heat Index Dew Point Humidity Pressure Visibility Wind Dir Wind Speed Gust Speed Precip Events Conditions
12:17 AM 64.6 °F - 58.3 °F 80% 29.98 in 10.0 mi Calm Calm - N/A   Clear
12:36 AM 62.8 °F - 58.3 °F 85% 29.98 in 10.0 mi Calm Calm - N/A   Clear
12:56 AM 63.0 °F - 58.8 °F 86% 29.98 in 10.0 mi Calm Calm - N/A   Clear
1:17 AM 65.3 °F - 58.1 °F 77% 29.97 in 10.0 mi SSE 3.5 mph - N/A   Clear
1:36 AM 66.2 °F - 58.5 °F 76% 29.97 in 10.0 mi Calm Calm - N/A   Clear
1:57 AM 65.3 °F - 59.0 °F 80% 29.97 in 10.0 mi Calm Calm - N/A   Clear
2:17 AM 64.9 °F - 59.2 °F 82% 29.97 in 10.0 mi Calm Calm - N/A   Clear
2:36 AM 64.0 °F - 59.4 °F 85% 29.96 in 10.0 mi Calm Calm - N/A   Clear
2:56 AM 64.6 °F - 59.4 °F 83% 29.95 in 10.0 mi SSE 3.5 mph - N/A   Clear
3:17 AM 64.4 °F - 59.9 °F 85% 29.95 in 10.0 mi Calm Calm - N/A   Clear
3:36 AM 64.4 °F - 59.0 °F 83% 29.95 in 10.0 mi Calm Calm - N/A   Clear
3:56 AM 63.0 °F - 58.5 °F 85% 29.95 in 10.0 mi Calm Calm - N/A   Clear
4:16 AM 63.7 °F - 59.0 °F 85% 29.95 in 10.0 mi SSE 3.5 mph - N/A   Clear
4:37 AM 63.9 °F - 58.8 °F 84% 29.94 in 10.0 mi Calm Calm - N/A   Clear
4:56 AM 63.9 °F - 58.5 °F 83% 29.95 in 10.0 mi SSE 3.5 mph - N/A   Clear
5:16 AM 63.5 °F - 58.5 °F 84% 29.95 in 10.0 mi SSE 3.5 mph - N/A   Clear
5:37 AM 63.1 °F - 58.5 °F 85% 29.95 in 10.0 mi South 3.5 mph - N/A   Clear
5:56 AM 63.3 °F - 58.6 °F 85% 29.95 in 10.0 mi SSE 4.6 mph - N/A   Scattered Clouds
6:16 AM 63.5 °F - 59.0 °F 85% 29.95 in 10.0 mi SSE 3.5 mph - N/A   Scattered Clouds
6:36 AM 63.9 °F - 59.4 °F 85% 29.95 in 10.0 mi SSE 3.5 mph - N/A   Scattered Clouds
6:56 AM 64.4 °F - 59.9 °F 85% 29.95 in 10.0 mi South 3.5 mph - N/A   Clear
7:17 AM 65.8 °F - 61.0 °F 84% 29.95 in 10.0 mi South 3.5 mph - N/A   Scattered Clouds
7:37 AM 65.8 °F - 61.0 °F 84% 29.96 in 10.0 mi South 4.6 mph - N/A   Scattered Clouds
7:56 AM 67.3 °F - 61.5 °F 82% 29.96 in 10.0 mi South 5.8 mph - N/A   Scattered Clouds
8:17 AM 68.7 °F - 62.2 °F 80% 29.95 in 10.0 mi South 3.5 mph - N/A   Clear
8:37 AM 70.7 °F - 62.2 °F 75% 29.95 in 10.0 mi SSW 3.5 mph - N/A   Clear
8:56 AM 71.6 °F - 62.4 °F 73% 29.95 in 10.0 mi Calm Calm - N/A   Clear
9:16 AM 73.4 °F - 62.6 °F 69% 29.95 in 10.0 mi South 3.5 mph - N/A   Clear
9:37 AM 75.0 °F - 63.1 °F 66% 29.95 in 10.0 mi South 5.8 mph - N/A   Clear
9:56 AM 76.1 °F - 63.3 °F 64% 29.94 in 10.0 mi South 5.8 mph - N/A   Clear
10:16 AM 77.0 °F - 63.1 °F 62% 29.94 in 10.0 mi South 3.5 mph - N/A   Clear
10:37 AM 78.1 °F - 62.8 °F 59% 29.93 in 10.0 mi South 4.6 mph - N/A   Clear
10:56 AM 79.2 °F - 63.3 °F 58% 29.93 in 10.0 mi SSE 5.8 mph - N/A   Clear
11:17 AM 80.8 °F 82.5 °F 64.9 °F 58% 29.93 in 10.0 mi South 6.9 mph - N/A   Clear
11:36 AM 81.5 °F 83.1 °F 64.2 °F 56% 29.93 in 10.0 mi SSE 6.9 mph - N/A   Clear
11:57 AM 82.6 °F 84.3 °F 65.1 °F 55% 29.92 in 10.0 mi SSE 5.8 mph - N/A   Clear
12:16 PM 83.5 °F 84.5 °F 63.3 °F 50% 29.92 in 10.0 mi South 8.1 mph - N/A   Clear
12:36 PM 84.6 °F 85.6 °F 63.5 °F 49% 29.92 in 10.0 mi South 5.8 mph - N/A   Clear
12:56 PM 85.1 °F 86.4 °F 64.0 °F 49% 29.92 in 10.0 mi South 8.1 mph - N/A   Clear
1:16 PM 84.9 °F 85.2 °F 61.3 °F 45% 29.91 in 10.0 mi South 6.9 mph - N/A   Clear
1:36 PM 86.0 °F 86.1 °F 61.2 °F 43% 29.91 in 10.0 mi SSW 5.8 mph - N/A   Clear
1:57 PM 86.5 °F 85.9 °F 59.0 °F 39% 29.90 in 10.0 mi South 8.1 mph - N/A   Clear
2:16 PM 86.7 °F 85.9 °F 58.1 °F 38% 29.90 in 10.0 mi South 8.1 mph 21.9 mph N/A   Clear
2:36 PM 87.6 °F 86.7 °F 58.3 °F 37% 29.89 in 10.0 mi South 11.5 mph - N/A   Clear
2:57 PM 87.8 °F 86.7 °F 58.1 °F 36% 29.89 in 10.0 mi South 6.9 mph - N/A   Clear
3:17 PM 88.0 °F 86.9 °F 58.3 °F 36% 29.89 in 10.0 mi South 10.4 mph - N/A   Clear
3:36 PM 87.8 °F 86.3 °F 56.3 °F 34% 29.88 in 10.0 mi South 11.5 mph 18.4 mph N/A   Scattered Clouds
3:56 PM 88.2 °F 87.3 °F 59.0 °F 37% 29.88 in 10.0 mi South 4.6 mph - N/A   Scattered Clouds
4:17 PM 88.0 °F 86.9 °F 57.6 °F 36% 29.88 in 10.0 mi South 9.2 mph 16.1 mph N/A   Clear
4:36 PM 88.7 °F 87.1 °F 56.3 °F 33% 29.88 in 10.0 mi South 9.2 mph - N/A   Clear
4:56 PM 88.2 °F 87.1 °F 57.7 °F 36% 29.87 in 10.0 mi South 5.8 mph 16.1 mph N/A   Clear
5:16 PM 87.3 °F 85.7 °F 55.8 °F 34% 29.87 in 10.0 mi South 6.9 mph - N/A   Clear
5:37 PM 88.0 °F 86.5 °F 56.7 °F 34% 29.87 in 10.0 mi South 5.8 mph - N/A   Clear
5:56 PM 87.3 °F 85.5 °F 54.9 °F 33% 29.87 in 10.0 mi South 5.8 mph 17.3 mph N/A   Clear
6:17 PM 86.4 °F 85.1 °F 56.3 °F 36% 29.87 in 10.0 mi South 8.1 mph - N/A   Clear
6:36 PM 86.0 °F 84.7 °F 56.5 °F 36% 29.86 in 10.0 mi South 5.8 mph - N/A   Clear
6:57 PM 85.5 °F 84.5 °F 56.8 °F 38% 29.86 in 10.0 mi South 5.8 mph - N/A   Clear
7:16 PM 84.6 °F 83.7 °F 57.0 °F 39% 29.86 in 10.0 mi South 5.8 mph - N/A   Clear
7:37 PM 83.7 °F 83.1 °F 57.4 °F 41% 29.86 in 10.0 mi South 4.6 mph - N/A   Clear
7:56 PM 82.8 °F 82.4 °F 57.6 °F 42% 29.86 in 10.0 mi South 5.8 mph - N/A   Clear
8:16 PM 81.9 °F 81.7 °F 57.0 °F 43% 29.86 in 10.0 mi South 5.8 mph - N/A   Clear
8:37 PM 81.0 °F 80.9 °F 56.7 °F 43% 29.86 in 10.0 mi SSE 4.6 mph - N/A   Clear
8:56 PM 79.7 °F - 57.2 °F 46% 29.86 in 10.0 mi South 3.5 mph - N/A   Clear
9:17 PM 78.3 °F - 57.6 °F 49% 29.86 in 10.0 mi South 3.5 mph - N/A   Clear
9:37 PM 77.9 °F - 58.1 °F 50% 29.86 in 10.0 mi South 3.5 mph - N/A   Clear
9:57 PM 77.2 °F - 57.7 °F 51% 29.87 in 10.0 mi South 4.6 mph - N/A   Clear
10:16 PM 76.6 °F - 58.3 °F 53% 29.87 in 7.0 mi South 3.5 mph - N/A   Clear
10:37 PM 75.7 °F - 58.3 °F 55% 29.88 in 10.0 mi South 3.5 mph - N/A   Clear
10:56 PM 75.4 °F - 58.5 °F 56% 29.88 in 10.0 mi South 4.6 mph - N/A   Clear
11:16 PM 75.2 °F - 58.3 °F 56% 29.88 in 10.0 mi South 4.6 mph - N/A   Clear
11:37 PM 74.7 °F - 58.3 °F 57% 29.88 in 10.0 mi South 5.8 mph - N/A   Clear
11:56 PM 75.2 °F - 58.3 °F 56% 29.89 in 10.0 mi South 6.9 mph - N/A   Clear